Amsterdam, Netherlands

6:03 AM CEST on April 29, 2017 (GMT +0200)
Amsterdam

Weather History for 06240 - May, 2013

Change the Weather History Date:

Friday, May 3, 2013

  Actual Average Record
Temperature  
Mean Temperature 54 °F -  
Max Temperature 64 °F 62 °F - ()
Min Temperature 43 °F 47 °F - ()
Degree Days  
Heating Degree Days 12    
Growing Degree Days 4 (Base 50)    
Moisture  
Dew Point 42 °F    
Average Humidity 64    
Maximum Humidity 87    
Minimum Humidity 38    
Precipitation  
Precipitation 0.00 in - - ()
Sea Level Pressure  
Sea Level Pressure 30.07 in    
Wind  
Wind Speed 6 mph ()    
Max Wind Speed 14 mph    
Max Gust Speed -    
Visibility 7.9 miles    
Events Fog    
T = Trace of Precipitation, MM = Missing Value Source: Averaged Metar Reports

Daily Weather History Graph

Daily Weather History Graph

Search for Another Location

Airport or City:

Trip Planner

Search our weather history database for the weather conditions in past years. The results will help you decide how hot, cold, wet, or windy it might be!

Date:

Astronomy

May. 03, 2013 Rise Set
Actual Time 6:06 AM CEST 9:10 PM CEST
Civil Twilight 5:26 AM CEST 9:50 PM CEST
Nautical Twilight 4:34 AM CEST 10:42 PM CEST
Astronomical Twilight 3:27 AM CEST 11:51 PM CEST
Moon 3:12 AM CEST (5/3) 2:00 PM CEST (5/3)
Length of Visible Light 16h 23m
Length of Day
15h 04m
Last Quarter, 40% of the Moon is Illuminated
May 3
Last Quarter
May 10
New
May 18
First Quarter
May 25
Full
May 31
Last Quarter

Hourly Weather History & Observations

Time (CEST) Temp. Windchill Dew Point Humidity Pressure Visibility Wind Dir Wind Speed Gust Speed Precip Events Conditions
12:25 AM 50.0 °F - 41.0 °F 71% 30.12 in 6.2 mi ENE 12.7 mph - N/A   Partly Cloudy
12:55 AM 50.0 °F - 42.8 °F 76% 30.12 in 6.2 mi NE 10.4 mph - N/A   Partly Cloudy
1:25 AM 48.2 °F - 41.0 °F 76% 30.12 in - NE 9.2 mph - N/A   Clear
1:55 AM 48.2 °F - 41.0 °F 76% 30.12 in - NE 8.1 mph - N/A   Clear
2:00 AM 48 °F - 41 °F 68% 30.13 in 11 mi NE 8.9 mph - -   Partly Cloudy
2:25 AM 48.2 °F - 41.0 °F 76% 30.12 in - NE 8.1 mph - N/A   Clear
2:55 AM 46.4 °F 42.4 °F 41.0 °F 81% 30.09 in - NE 8.1 mph - N/A   Clear
3:25 AM 46.4 °F 42.9 °F 41.0 °F 81% 30.09 in - NE 6.9 mph - N/A   Clear
3:55 AM 46.4 °F 42.9 °F 41.0 °F 81% 30.09 in - NE 6.9 mph - N/A   Clear
4:25 AM 44.6 °F 40.7 °F 41.0 °F 87% 30.09 in - NE 6.9 mph - N/A   Clear
4:55 AM 44.6 °F 40.7 °F 41.0 °F 87% 30.06 in - NE 6.9 mph - N/A   Clear
5:00 AM 45 °F - 41 °F 80% 30.09 in 9 mi NE 6.7 mph - -  
5:25 AM 44.6 °F 40.7 °F 41.0 °F 87% 30.06 in - NE 6.9 mph - N/A   Clear
5:55 AM 44.6 °F 41.4 °F 39.2 °F 81% 30.06 in - NE 5.8 mph - N/A   Clear
6:25 AM 44.6 °F 42.2 °F 41.0 °F 87% 30.06 in - ENE 4.6 mph - N/A   Clear
6:55 AM 44.6 °F 43.1 °F 41.0 °F 87% 30.06 in 6.2 mi NE 3.5 mph - N/A Fog Shallow Fog
7:25 AM 46.4 °F - 41.0 °F 81% 30.06 in - ENE 2.3 mph - N/A   Clear
7:55 AM 50.0 °F - 42.8 °F 76% 30.09 in - Variable 2.3 mph - N/A   Clear
8:00 AM 50 °F - 41 °F 63% 30.10 in 12 mi ENE 4.5 mph - -   Partly Cloudy
8:25 AM 51.8 °F - 41.0 °F 67% 30.09 in - NE 4.6 mph - N/A   Clear
8:55 AM 55.4 °F - 41.0 °F 58% 30.09 in - NE 3.5 mph - N/A   Clear
9:25 AM 55.4 °F - 41.0 °F 58% 30.09 in - Variable 2.3 mph - N/A   Clear
9:55 AM 57.2 °F - 42.8 °F 59% 30.09 in - Variable 1.2 mph - N/A   Clear
10:25 AM 57.2 °F - 42.8 °F 59% 30.09 in - Variable 2.3 mph - N/A   Clear
10:55 AM 59.0 °F - 42.8 °F 55% 30.06 in - Variable 2.3 mph - N/A   Clear
11:00 AM 59 °F - 44 °F 46% 30.09 in 12 mi ENE 4.5 mph - -  
11:25 AM 60.8 °F - 46.4 °F 59% 30.06 in 6.2 mi ENE 4.6 mph - N/A   Partly Cloudy
11:55 AM 60.8 °F - 42.8 °F 52% 30.06 in 6.2 mi Variable 4.6 mph - N/A   Partly Cloudy
12:25 PM 62.6 °F - 46.4 °F 55% 30.06 in 6.2 mi Variable 4.6 mph - N/A   Partly Cloudy
12:55 PM 62.6 °F - 46.4 °F 55% 30.06 in 6.2 mi NNE 4.6 mph - N/A   Partly Cloudy
1:25 PM 60.8 °F - 42.8 °F 52% 30.06 in 6.2 mi NNE 3.5 mph - N/A   Partly Cloudy
1:55 PM 62.6 °F - 44.6 °F 52% 30.06 in 6.2 mi North 6.9 mph - N/A   Partly Cloudy
2:00 PM 63 °F - 45 °F 41% 30.07 in 12 mi NNE 4.5 mph - -   Partly Cloudy
2:25 PM 62.6 °F - 44.6 °F 52% 30.06 in 6.2 mi Variable 8.1 mph - N/A   Partly Cloudy
2:55 PM 62.6 °F - 44.6 °F 52% 30.06 in 6.2 mi NW 8.1 mph - N/A   Partly Cloudy
3:25 PM 62.6 °F - 42.8 °F 48% 30.06 in - North 9.2 mph - N/A   Clear
3:55 PM 64.4 °F - 44.6 °F 49% 30.04 in - NNW 11.5 mph - N/A   Clear
4:25 PM 62.6 °F - 44.6 °F 52% 30.04 in - NW 13.8 mph - N/A   Clear
4:55 PM 62.6 °F - 44.6 °F 52% 30.04 in - NW 9.2 mph - N/A   Clear
5:00 PM 63 °F - 44 °F 38% 30.05 in 11 mi NW 8.9 mph - -  
5:25 PM 62.6 °F - 42.8 °F 48% 30.04 in - NW 9.2 mph - N/A   Clear
5:55 PM 62.6 °F - 42.8 °F 48% 30.04 in - NW 9.2 mph - N/A   Clear
6:25 PM 62.6 °F - 42.8 °F 48% 30.04 in - NW 8.1 mph - N/A   Clear
6:55 PM 60.8 °F - 41.0 °F 48% 30.04 in - NW 9.2 mph - N/A   Clear
7:25 PM 60.8 °F - 42.8 °F 52% 30.04 in - WNW 9.2 mph - N/A   Clear
7:55 PM 59.0 °F - 42.8 °F 55% 30.04 in - NW 9.2 mph - N/A   Clear
8:00 PM 58 °F - 44 °F 49% 30.04 in 7 mi NW 8.9 mph - -   Partly Cloudy
8:25 PM 55.4 °F - 42.8 °F 63% 30.04 in - NW 6.9 mph - N/A   Clear
8:55 PM 55.4 °F - 42.8 °F 63% 30.04 in - NW 4.6 mph - N/A   Clear
9:25 PM 53.6 °F - 42.8 °F 67% 30.04 in - NW 3.5 mph - N/A   Clear
9:55 PM 53.6 °F - 42.8 °F 67% 30.04 in - NW 1.2 mph - N/A   Clear
10:25 PM 51.8 °F - 42.8 °F 71% 30.04 in - Variable 1.2 mph - N/A   Clear
10:55 PM 50.0 °F - 41.0 °F 71% 30.04 in - SSW 3.5 mph - N/A   Clear
11:00 PM 50 °F - 42 °F 64% 30.04 in 7 mi SW 2.2 mph - -  
11:25 PM 50.0 °F - 41.0 °F 71% 30.04 in - SW 3.5 mph - N/A   Clear
11:55 PM 48.2 °F - 41.0 °F 76% 30.04 in - SSW 4.6 mph - N/A   Clear